Location: Altmatt
(47.1333°N, 8.7000°E)
Time: 08:28:19
(UTC+00:00)

Cosmos 1825 - Pass Details

Date: 13 July 2020
Orbit: 503 x 508 km, 82.5° (Epoch: 04 August)

Event Time Altitude Azimuth Distance (km) Brightness Sun altitude
Exits shadow 21:06:47 25° 155° (SSE) 1,072 3.2 -13.9°
Maximum altitude 21:08:41 47° 94° (E) 687 2.5 -14.1°
Drops below altitude 10° 21:12:20 10° 20° (NNE) 1,737 5.4 -14.4°
Sets 21:14:31 0° 15° (NNE) 2,628 6.5 -14.6°
